Location: Foligno
(42.9600°N, 12.7050°E)
Time: 16:00:36
(UTC+02:00)

ISS - Visible Passes

Search period start: 16 October 2019 00:00
Search period end: 26 October 2019 00:00
Orbit: 411 x 421 km, 51.6° (Epoch: 16 October)

Date Brightness Start Highest point End Pass type
(mag) Time Alt. Az. Time Alt. Az. Time Alt. Az.
22 Oct -0.6 06:50:05 10° SSE 06:51:55 14° SE 06:53:44 10° E visible
24 Oct -2.2 06:48:05 10° SSW 06:51:12 36° SE 06:54:20 10° ENE visible
25 Oct -1.4 06:00:07 10° S 06:02:47 21° SE 06:05:25 10° E visible
